RH
10 10 9 10 17 23 22 19 15 12 11 12 12 12 13 14 13 15 18 20 21 22 21 20 21 18 15 13 13 16 17 20 23 21 20 21 21 21 20 21 21 22 23 24 25 25 26 25 25 25 24 24 24 26 28 28 29 28 27 28 32 37 40 39 37 37 39 43 47 48 46 45 42 38 37 37 38 38 38 38 37 35 33 34 36 36
12 11 11 12 15 18 17 15 12 12 12 12 12 13 14 14 16 19 22 24 23 22 21 20 20 18 15 14 16 19 20 19 19 20 21 21 21 21 21 22 22 23 23 24 24 24 24 25 25 26 26 27 28 29 29 29 30 32 35 38 42 44 42 40 40 42 43 44 46 46 44 42 38 36 36 39 40 40 41 40 37 35 33 31 30 30
16 16 17 20 19 17 13 11 11 12 13 13 13 14 14 16 20 24 25 24 23 21 20 19 20 18 16 17 19 20 20 20 21 22 22 22 22 23 23 23 24 24 24 24 24 24 24 27 28 30 30 30 30 30 31 33 36 40 42 44 46 47 46 46 46 47 47 45 44 43 41 38 35 37 40 43 44 44 44 43 40 38 35 31 28 26
16 19 24 24 20 16 12 11 12 12 12 13 14 15 15 18 22 24 23 23 23 21 20 22 24 21 18 20 21 22 22 22 24 24 23 23 23 24 24 25 25 26 26 26 26 26 27 30 31 32 32 31 33 34 36 39 41 43 45 47 50 51 51 51 51 49 47 45 43 41 37 35 38 42 45 46 46 45 45 44 42 40 37 33 29 26
14 16 18 17 14 13 12 12 12 12 13 14 16 18 17 20 22 23 23 23 21 20 23 28 29 23 20 22 23 25 26 25 26 25 24 25 25 25 26 26 27 28 28 29 29 30 31 33 34 35 36 36 38 40 41 42 43 45 47 49 52 52 50 47 44 41 39 39 38 36 35 38 42 45 46 46 46 45 44 43 41 39 37 35 32 30
13 12 12 12 12 12 12 12 12 12 13 15 19 20 20 22 23 24 24 23 22 24 30 33 34 30 22 22 26 27 28 28 28 26 26 27 27 27 28 28 30 30 31 33 33 35 37 38 39 39 40 41 42 44 45 45 45 45 47 49 49 44 38 32 31 31 32 32 33 34 37 40 42 43 45 45 44 43 41 39 38 36 36 35 34 33
13 14 14 14 14 13 12 12 13 14 16 19 20 20 22 22 22 23 23 24 24 26 31 32 36 38 27 22 27 27 28 31 30 29 28 29 29 29 30 30 31 32 34 36 37 39 41 41 42 43 43 45 46 46 46 46 46 47 46 44 38 30 24 22 24 26 28 31 33 36 38 40 41 41 41 40 38 37 35 34 33 32 31 31 31 32
17 17 15 15 14 13 13 13 14 16 18 20 20 21 22 21 22 23 23 24 25 26 31 30 33 41 33 25 28 27 29 33 32 33 32 30 30 31 31 32 33 34 36 38 41 41 43 44 45 45 45 45 45 44 45 45 46 45 41 33 25 21 20 22 25 29 32 35 36 37 37 36 35 33 32 31 30 29 28 27 26 26 26 26 27 28
15 14 14 14 13 14 14 14 17 18 20 20 20 21 21 22 23 22 23 25 28 35 39 32 32 45 41 28 29 31 31 35 34 34 34 31 32 32 32 34 35 36 39 40 43 43 44 45 44 44 44 43 43 42 43 42 39 35 30 25 23 24 28 31 33 35 35 35 34 32 31 30 29 28 27 26 24 22 21 20 19 18 18 19 20 21
15 14 15 15 14 16 15 16 18 18 21 21 21 22 21 22 22 24 30 31 36 47 46 34 33 45 41 26 28 33 32 35 36 33 32 32 33 34 34 36 37 39 42 43 44 45 44 44 43 43 42 42 42 41 40 36 31 29 29 30 31 33 35 36 36 35 34 33 33 32 31 30 28 26 23 20 17 15 13 13 12 12 12 13 14 15
19 17 17 16 16 17 16 18 19 20 22 22 22 22 21 24 25 30 34 33 43 54 46 37 35 39 39 28 25 31 32 33 34 32 34 35 36 37 38 39 42 43 45 45 45 45 44 44 44 44 44 44 44 42 40 38 36 36 36 36 35 34 34 34 34 34 34 34 35 34 32 29 25 20 16 13 11 9 9 8 8 8 9 9 10 11
20 18 18 18 18 19 18 19 19 21 22 22 24 25 25 29 32 38 40 39 53 56 40 36 36 36 40 32 24 28 29 30 31 31 35 37 38 40 40 42 44 45 46 45 45 45 44 45 45 45 46 46 46 45 43 41 40 37 35 33 32 31 32 33 34 35 35 36 35 32 28 23 18 13 9 8 7 7 7 7 7 8 8 8 9 9
18 19 20 21 21 20 19 18 19 22 24 25 26 26 32 37 36 41 44 43 51 48 34 31 33 35 36 30 26 28 29 30 31 33 35 37 39 40 42 44 45 46 46 45 45 45 45 45 45 45 45 44 43 41 38 35 33 31 31 31 32 33 34 35 36 36 35 33 29 25 20 16 11 9 7 7 7 8 8 9 9 9 9 9 9 10
20 22 23 23 21 19 19 18 20 23 25 27 27 27 36 42 42 45 42 39 44 40 32 32 36 37 33 29 30 30 30 32 32 34 36 38 40 42 44 45 45 45 45 45 45 45 45 44 43 41 40 39 37 34 31 30 31 31 32 34 35 36 36 36 36 34 31 26 21 16 13 12 10 9 9 9 9 9 10 11 12 12 11 11 11 12
25 27 25 21 19 19 19 20 21 22 23 26 27 28 32 35 42 49 46 45 48 41 35 36 38 36 33 35 36 33 34 35 34 37 39 40 43 45 45 45 45 45 44 46 47 46 45 43 40 37 35 34 33 32 31 32 34 35 36 37 37 36 34 32 30 27 24 20 16 13 13 14 15 16 16 14 12 11 12 13 14 15 15 14 14 14
24 28 27 21 19 19 20 20 21 21 23 28 28 30 34 35 38 43 42 39 40 43 44 41 36 32 34 40 39 37 38 38 38 41 42 45 46 46 46 46 45 45 45 47 48 47 45 42 38 35 33 33 33 34 35 37 38 39 38 36 32 28 24 22 20 19 18 17 16 16 16 17 20 22 23 23 20 17 15 14 14 15 16 16 16 15
24 25 24 20 18 18 20 21 21 20 24 29 29 32 38 38 35 38 41 36 37 50 50 38 35 34 36 42 42 41 44 42 44 47 46 47 48 47 48 47 46 46 44 45 45 43 41 39 36 35 35 36 37 38 40 40 39 36 31 26 21 18 16 16 17 18 19 19 20 21 21 21 20 20 20 22 23 23 22 20 18 17 16 17 16 16
26 22 19 18 18 20 21 21 20 21 24 27 31 33 33 34 35 37 45 46 49 57 46 32 35 35 35 45 47 47 50 50 49 49 48 48 48 49 50 48 45 43 41 40 39 38 37 36 36 37 39 41 41 40 39 35 32 27 22 18 15 15 17 20 24 26 28 30 31 32 30 26 21 18 16 15 16 18 20 21 21 21 20 21 23 23
24 24 22 23 24 23 21 21 22 25 29 30 33 34 31 35 39 38 46 56 62 64 51 37 37 36 37 44 49 51 53 52 51 49 49 49 50 51 51 47 44 40 39 38 37 38 38 39 41 43 43 42 38 34 30 27 23 19 17 17 19 21 25 30 32 34 36 38 40 39 36 31 25 21 17 13 11 11 13 15 17 20 23 26 29 32
22 28 29 26 25 23 21 24 27 28 32 33 34 37 38 40 42 40 44 50 58 63 57 50 46 42 42 43 46 51 52 50 51 49 50 51 51 52 51 48 44 40 39 39 40 42 43 45 46 44 39 34 30 28 26 24 21 22 24 26 27 29 33 35 36 38 43 46 46 42 35 29 24 20 17 13 8 8 11 12 13 18 23 27 32 36
21 31 33 26 23 24 25 29 31 31 34 34 35 40 45 47 45 46 46 41 46 55 59 64 59 45 43 45 45 48 51 52 53 51 52 53 52 52 50 47 43 41 41 43 45 47 47 45 41 35 33 33 34 34 35 36 38 42 43 40 38 38 37 37 36 38 42 44 44 40 33 26 21 17 15 11 7 8 11 10 12 19 26 31 35 38
22 29 31 26 22 23 25 28 30 31 33 32 32 35 40 43 42 50 56 48 46 53 57 67 68 51 44 47 46 49 53 53 53 54 54 53 52 52 49 45 43 43 46 48 48 46 42 37 32 31 38 46 50 51 53 57 59 58 53 49 47 45 42 41 40 41 42 42 42 42 38 29 22 17 14 11 9 9 11 9 12 22 32 38 42 43
23 25 29 27 26 27 27 28 30 33 32 31 34 35 35 38 39 48 60 56 52 54 51 56 65 56 47 47 49 54 57 54 54 56 54 54 55 53 47 44 43 47 50 48 44 40 34 31 32 37 46 54 59 61 62 62 59 55 50 49 52 57 60 62 61 60 59 56 54 54 49 39 27 20 17 16 13 12 13 12 16 27 32 33 37 44
22 28 34 32 28 27 28 30 32 34 35 36 40 41 40 43 45 48 54 54 55 55 51 58 65 55 47 51 55 57 58 57 57 55 54 56 56 52 48 47 49 50 47 42 37 36 36 38 43 47 51 54 54 54 54 50 47 47 48 54 71 86 91 92 91 88 86 82 73 61 50 42 30 20 18 21 27 31 22 13 18 26 23 17 18 26
22 28 33 35 37 36 34 38 40 38 39 42 44 46 47 48 51 52 52 54 58 56 53 63 67 54 49 56 58 58 58 56 54 54 56 59 58 54 51 50 52 48 39 37 40 42 45 48 51 52 51 48 46 44 44 41 40 46 53 64 82 93 94 96 99 99 98 96 85 64 48 40 28 23 37 53 61 58 36 18 22 25 14 9 10 10
24 24 27 37 48 50 47 47 47 43 41 44 47 51 51 51 54 56 56 60 66 64 61 66 68 60 58 59 57 56 56 53 53 55 57 61 61 55 51 51 50 42 36 39 44 47 52 53 51 50 46 41 39 39 41 43 45 48 52 56 61 64 67 74 82 89 91 89 84 70 53 40 27 32 64 84 79 66 46 29 29 27 14 9 10 11
27 26 28 34 40 42 41 40 40 42 43 46 51 53 52 54 56 57 60 65 68 72 70 66 66 65 61 57 56 57 58 60 64 65 65 65 60 54 53 50 42 36 38 45 53 64 68 58 45 38 32 27 26 27 31 36 37 33 27 25 25 28 32 36 40 52 63 69 75 69 49 30 19 24 47 59 56 61 59 41 30 28 21 12 9 12
29 28 30 35 37 39 39 38 40 44 46 48 50 51 54 58 59 59 63 65 68 78 79 68 64 63 57 55 59 63 66 71 73 72 68 63 57 54 50 41 36 38 44 56 71 80 70 46 28 21 15 12 12 12 13 15 14 10 8 7 7 8 10 10 9 14 23 31 38 35 22 11 10 15 26 32 39 60 69 49 28 22 18 11 7 10
31 32 34 37 39 39 40 42 44 46 47 50 52 55 59 61 62 64 66 64 66 75 77 67 60 58 56 59 65 69 72 74 72 68 65 60 55 49 39 36 48 56 59 71 80 66 39 20 13 9 7 6 6 6 6 6 5 5 5 5 5 5 5 5 6 7 7 9 9 8 7 5 6 9 14 21 30 44 53 45 31 21 14 8 5 5
34 36 39 42 39 37 42 47 48 49 52 54 57 60 59 59 62 64 63 61 61 63 63 60 58 59 61 64 66 67 68 68 67 65 61 55 47 41 39 51 73 81 79 81 70 38 12 7 7 6 6 6 6 5 6 6 6 6 6 6 6 6 6 5 6 6 5 5 5 5 5 5 4 5 5 8 13 19 24 29 31 27 17 9 5 5
37 38 42 45 40 38 45 51 52 56 59 59 60 61 60 59 60 59 60 61 62 63 62 62 63 62 62 63 64 65 66 68 66 61 55 45 40 47 57 67 78 78 66 52 32 11 4 6 7 6 7 7 6 7 7 6 6 6 6 6 6 5 6 6 6 6 5 6 6 5 6 5 5 6 5 5 6 7 10 15 20 23 18 10 8 8
39 41 42 45 44 41 46 51 53 58 61 60 62 64 63 63 63 64 67 66 65 67 67 66 70 72 70 67 64 64 67 68 61 53 47 40 41 49 55 57 56 47 29 15 7 6 8 8 7 7 7 6 6 6 6 5 6 5 5 5 5 5 5 5 4 5 5 5 5 4 5 5 5 5 5 6 6 6 8 10 11 14 16 14 12 11
41 43 42 48 50 44 45 51 52 58 67 67 67 68 67 68 69 69 69 68 67 70 69 69 75 78 77 73 69 68 67 60 51 46 41 38 42 42 34 31 29 19 9 8 8 8 8 6 6 6 5 6 6 5 5 5 5 5 5 4 5 4 5 5 4 5 4 4 5 4 4 5 5 5 5 6 6 7 7 8 9 10 13 15 16 17
44 44 43 50 55 51 51 54 53 62 75 73 69 71 71 72 74 74 72 71 70 69 69 72 74 73 75 79 78 71 59 47 43 39 30 30 41 40 24 16 14 9 8 9 7 6 7 5 5 6 5 6 6 5 5 5 5 5 5 5 5 5 6 6 5 5 5 5 5 5 5 5 5 5 5 6 7 8 8 8 8 10 13 17 22 27
43 44 46 54 62 62 58 58 63 72 76 70 69 76 77 75 76 72 66 66 68 70 72 72 74 78 82 81 72 57 45 41 37 27 22 30 40 36 22 12 10 9 8 7 6 5 6 5 5 6 5 5 5 5 6 6 6 6 5 6 6 6 6 6 6 6 6 5 5 5 5 5 5 5 6 6 7 7 8 8 8 11 17 23 29 37
45 49 53 57 64 66 62 65 76 78 73 69 72 75 73 71 70 66 63 69 77 76 74 77 85 88 81 67 54 44 37 32 24 17 22 31 29 20 14 9 7 7 5 5 6 5 5 6 6 6 6 6 6 6 6 6 6 6 6 6 6 5 6 5 5 6 6 6 6 6 6 5 5 6 6 7 9 9 9 12 12 13 20 29 38 47
48 54 57 58 65 71 69 68 69 69 72 75 77 80 81 78 76 75 74 77 80 80 85 94 93 79 61 49 41 33 22 17 15 14 17 18 12 8 8 6 5 6 5 5 6 6 6 7 6 6 7 7 7 7 7 7 7 6 6 6 6 6 7 7 7 8 8 10 11 10 9 9 9 10 12 13 14 15 15 16 17 20 27 38 51 63
51 55 57 63 71 73 72 68 63 67 79 83 81 86 87 81 81 81 72 69 78 87 89 83 68 53 46 40 29 17 10 10 13 13 10 9 7 6 5 4 5 6 5 5 6 5 6 7 6 7 7 7 7 8 7 7 7 7 7 8 8 9 10 10 10 11 12 16 18 19 19 19 19 20 22 23 23 25 24 23 25 31 39 48 60 75
54 54 55 66 73 69 68 71 68 69 80 83 78 78 78 76 75 70 62 62 72 77 70 60 54 48 38 24 13 9 10 11 11 9 8 6 5 4 5 5 6 5 5 6 6 6 6 7 7 7 7 7 8 8 8 9 9 10 11 11 12 13 14 14 14 15 18 21 23 26 27 27 28 29 31 32 31 32 33 30 31 39 50 58 61 70
53 53 56 65 67 63 67 74 69 68 78 79 70 69 74 71 62 60 64 62 52 51 60 65 58 39 19 9 8 10 12 14 12 7 6 5 4 5 6 6 5 6 6 6 6 6 7 7 7 8 8 8 8 8 10 11 10 12 13 13 15 17 19 20 21 23 26 27 28 31 32 34 35 34 35 35 36 36 36 34 35 43 53 59 58 64
52 56 65 68 61 59 68 73 67 70 78 73 67 71 69 57 53 67 83 80 63 53 56 54 35 15 7 9 11 10 10 11 8 5 5 6 6 5 5 6 7 7 7 7 8 7 7 7 7 8 9 9 10 11 12 11 11 12 14 16 20 23 25 26 27 28 30 31 32 34 36 39 41 41 41 43 43 41 38 39 47 53 53 54 57 63
52 57 68 70 64 64 69 71 69 74 76 68 69 75 64 53 68 84 88 91 85 61 36 22 13 8 9 11 10 9 8 6 5 6 6 6 6 6 6 7 7 7 7 8 8 8 8 8 8 8 9 10 12 14 14 14 14 16 20 24 28 30 31 32 33 33 34 36 39 43 46 49 53 56 57 57 56 51 45 45 55 61 57 56 60 62
56 59 66 69 72 75 74 74 79 85 80 70 69 69 57 61 88 96 82 73 62 35 13 9 10 10 11 11 9 7 5 4 5 6 5 6 7 7 7 7 7 7 8 7 8 8 8 9 9 9 10 11 13 15 18 21 22 24 29 35 37 38 39 40 44 47 49 54 58 61 64 67 72 77 78 77 74 69 60 55 59 63 62 61 64 63
58 62 67 70 80 85 77 74 83 87 81 75 73 67 61 73 90 85 62 42 25 11 9 11 11 11 10 8 6 5 5 5 6 5 6 6 6 6 7 8 8 8 7 7 8 9 9 10 10 10 10 13 16 20 25 33 36 36 39 43 44 44 45 49 56 62 67 74 79 82 85 86 88 91 93 94 93 86 76 70 68 66 66 68 74 76
62 70 75 76 82 80 71 72 80 78 70 68 68 65 63 69 68 50 30 17 10 10 12 11 11 11 7 4 5 5 5 6 5 6 6 6 6 7 8 7 8 8 9 9 9 10 10 11 12 12 12 15 23 31 38 47 53 52 51 50 50 51 54 59 66 72 77 84 89 93 96 97 97 99 100 101 103 99 91 85 80 74 73 77 85 90
68 77 78 74 70 63 60 67 70 63 58 60 62 61 55 48 38 23 13 10 10 11 12 11 10 7 4 5 6 5 6 7 6 6 7 6 7 8 7 8 8 9 9 10 10 11 11 12 13 15 16 21 31 41 49 58 64 63 61 59 59 61 66 71 78 84 87 92 95 96 99 100 99 100 102 102 104 104 101 99 96 90 88 90 94 98
72 74 69 62 56 48 49 56 55 51 55 59 58 55 45 31 21 14 11 11 12 12 11 9 6 5 5 6 6 6 7 7 6 7 7 7 8 8 8 9 9 9 10 11 11 12 13 13 16 21 27 33 42 51 59 65 68 68 67 68 71 74 78 83 89 92 93 94 95 94 96 98 99 100 102 102 102 101 101 101 101 100 99 100 100 101
69 68 61 54 48 42 44 51 50 49 55 58 52 43 31 20 15 13 12 12 12 11 9 5 5 6 6 6 6 7 7 7 7 8 8 7 8 8 9 10 10 10 11 12 12 13 15 18 22 28 38 49 57 63 68 70 72 74 74 75 80 85 87 90 94 97 95 94 94 94 95 98 100 101 101 101 100 101 100 100 100 100 101 100 100 101
68 63 54 44 40 40 45 49 46 44 50 54 47 31 18 14 14 13 13 13 11 9 7 5 5 7 6 7 7 7 6 7 8 8 8 8 9 9 10 11 11 12 12 13 14 15 19 28 37 44 56 67 70 72 73 73 76 79 79 82 88 92 93 94 95 96 95 95 95 97 98 99 100 101 100 100 100 100 100 100 100 100 100 100 100 100
63 53 43 39 39 43 49 53 52 53 55 50 38 23 15 14 15 13 13 12 9 6 5 4 5 6 7 8 8 7 8 8 8 8 9 9 10 10 12 12 12 13 14 14 14 15 20 32 46 59 71 78 79 79 80 80 82 82 81 86 94 96 94 93 93 93 95 97 98 99 99 100 100 100 100 100 100 100 100 101 102 101 100 100 100 100
52 41 40 44 46 48 52 57 60 61 55 41 28 20 16 15 14 13 12 10 7 5 5 5 6 6 6 7 8 8 9 8 8 9 9 9 11 12 12 13 14 14 15 15 17 21 26 34 49 65 76 80 81 83 86 87 88 86 85 90 97 98 97 97 96 96 98 99 100 100 100 100 100 100 100 100 100 100 100 100 101 102 101 101 101 100
Wind_Speed
10 13 14 13 11 11 14 16 18 19 19 18 20 22 22 24 25 22 22 23 22 25 29 28 30 34 34 31 26 20 18 18 18 18 19 23 22 19 20 20 19 18 16 15 14 12 13 15 18 19 19 19 19 20 22 24 25 27 29 30 31 31 32 31 31 32 33 33 34 36 37 37 38 38 38 38 39 40 41 41 42 42 43 44 45 46
12 15 16 15 14 14 15 17 19 20 19 20 21 21 22 23 22 20 20 21 21 24 28 29 32 35 33 29 22 16 15 14 15 18 20 20 18 18 18 17 16 14 13 12 11 13 15 16 16 17 17 18 19 21 22 23 24 25 27 28 29 30 32 32 32 34 35 36 37 38 38 38 39 39 39 40 41 42 43 43 43 44 44 44 46 47
14 16 15 14 14 15 17 19 20 20 19 20 20 20 22 20 17 18 19 21 22 25 29 31 32 33 29 23 16 13 12 12 16 18 18 17 16 15 15 15 15 14 13 14 15 16 16 15 16 16 17 18 20 21 21 22 24 26 28 29 30 31 32 34 35 36 38 39 39 39 39 38 39 40 42 43 43 44 45 44 45 46 46 46 46 47
14 14 13 13 15 18 20 20 19 19 19 20 19 20 21 19 16 18 21 23 26 28 31 28 28 30 23 13 12 11 12 16 18 18 16 14 13 13 14 15 14 14 14 15 16 17 16 15 16 16 18 19 20 21 22 25 28 30 31 32 33 33 34 35 37 39 39 40 40 39 38 38 40 42 44 46 47 47 47 47 47 47 47 47 47 48
16 16 16 17 19 19 20 20 19 20 21 20 18 19 21 20 19 21 24 26 29 29 25 19 21 23 12 5 11 12 14 17 17 16 14 12 12 13 15 14 13 14 14 15 16 17 17 17 17 18 19 20 21 23 26 29 32 33 34 35 35 36 37 37 38 39 39 38 37 38 39 40 42 44 46 47 48 49 50 50 50 49 49 49 49 50
19 18 18 17 17 17 19 20 20 22 22 19 16 17 19 20 21 22 24 27 27 22 14 12 13 9 4 5 11 15 16 14 13 15 13 11 12 13 12 13 13 14 15 15 16 17 17 18 19 20 21 22 24 27 30 32 34 36 37 38 38 38 38 38 38 37 37 37 37 39 42 44 46 47 48 49 50 51 52 53 53 53 52 52 52 52
18 16 15 16 18 20 21 21 20 20 20 18 17 17 18 20 22 23 24 24 20 15 14 15 11 10 14 13 12 18 17 13 12 13 11 10 11 12 13 14 15 15 16 17 17 17 17 18 20 21 23 25 27 29 31 33 35 36 37 38 38 37 37 36 36 36 37 39 41 44 47 48 50 50 51 51 52 53 54 55 56 56 55 55 55 54
16 16 17 19 20 21 21 20 19 18 18 18 18 19 19 19 20 21 21 22 22 22 22 18 12 15 18 13 11 18 15 11 12 11 9 11 12 13 15 15 16 17 17 17 17 17 17 18 19 22 24 27 29 31 34 35 36 36 36 35 35 35 36 36 37 39 41 43 46 48 49 51 52 53 54 55 56 57 58 58 59 59 58 58 58 57
18 18 18 19 20 19 19 18 18 18 18 19 19 19 18 19 20 20 21 22 21 18 17 11 7 10 10 6 10 15 12 10 13 11 11 14 14 15 16 16 17 18 18 17 17 17 17 18 21 23 27 30 32 35 36 36 36 35 34 34 35 36 38 40 41 43 45 47 49 50 52 53 54 56 57 59 59 60 61 61 62 62 61 60 59 58
16 16 17 18 18 18 18 17 17 17 17 17 17 17 18 20 20 18 17 17 12 8 12 12 9 7 7 7 11 13 10 10 13 14 15 17 16 16 17 17 17 17 16 16 16 17 19 22 24 27 30 33 36 37 37 35 34 34 35 36 38 40 42 43 45 47 49 51 52 54 55 57 58 59 60 61 62 61 61 61 60 60 59 59 58 56
13 15 17 17 17 17 16 15 14 14 13 16 18 19 20 18 15 13 12 9 4 4 7 8 11 7 3 3 9 13 12 11 15 17 18 18 17 17 17 16 16 15 15 16 18 21 24 26 29 31 34 36 36 36 36 35 34 36 38 39 41 43 45 47 49 51 52 54 56 57 59 60 61 62 62 61 59 57 56 55 54 54 54 54 53 52
14 15 16 16 15 14 13 11 11 13 15 17 18 18 17 13 9 8 6 1 1 3 2 7 8 6 5 5 7 11 13 14 19 21 20 18 16 15 16 15 15 15 16 19 22 25 28 30 32 34 35 35 35 35 35 36 37 38 40 42 44 45 48 50 52 54 56 57 58 59 60 60 61 60 58 56 53 50 48 48 48 48 48 47 46 46
15 15 14 13 12 12 11 12 14 16 17 17 16 15 12 7 5 3 2 2 2 1 4 5 3 7 13 15 17 18 19 19 21 21 20 18 16 16 16 15 15 17 21 25 27 30 32 33 35 36 36 36 36 37 38 39 41 42 44 46 48 50 52 54 55 57 58 59 60 60 59 58 57 55 52 50 48 46 45 44 44 45 44 44 43 42
12 12 10 10 11 10 12 16 19 16 16 16 14 11 6 3 3 3 2 3 2 1 1 7 7 10 15 15 16 18 18 17 17 16 16 15 15 16 16 17 19 23 27 31 33 34 36 37 38 39 40 40 41 41 42 44 46 48 50 51 53 55 56 57 58 59 59 58 57 56 56 54 52 50 49 47 46 45 44 43 43 43 43 43 42 41
9 9 9 10 11 12 16 21 20 17 17 14 8 6 6 5 3 3 2 3 5 7 10 10 7 8 9 8 12 14 13 13 13 13 13 14 15 16 19 22 25 29 33 35 35 36 38 39 40 41 43 44 45 46 48 50 52 54 56 57 59 60 60 60 61 60 59 57 54 52 51 50 48 47 47 46 45 44 43 43 43 43 43 43 43 42
8 7 9 12 13 16 20 19 16 16 14 9 6 7 8 6 6 7 9 12 13 12 9 8 9 12 13 11 13 14 12 12 11 11 12 13 15 19 23 26 29 33 35 36 37 38 39 40 42 44 46 48 50 52 54 56 59 60 62 63 63 63 62 61 59 59 58 57 55 52 48 46 44 44 44 45 45 44 43 44 45 45 44 44 44 44
7 9 12 14 16 18 17 14 15 16 13 10 10 9 7 8 10 12 13 13 11 7 5 7 8 9 10 10 12 12 11 10 10 10 11 14 18 23 27 30 33 34 36 37 37 39 41 42 44 46 49 53 56 58 60 62 63 64 63 63 62 60 59 57 56 55 55 55 55 54 51 47 44 42 43 43 43 44 44 45 46 47 47 47 47 47
12 17 17 14 14 14 14 17 19 17 14 12 10 9 9 9 9 8 6 6 4 3 4 6 8 11 11 7 6 7 7 8 9 10 13 18 22 25 30 33 35 35 36 37 38 41 44 46 49 52 55 59 61 62 64 64 64 63 61 58 57 56 55 54 54 53 53 53 52 53 53 51 48 45 44 44 44 43 44 45 46 47 48 48 48 48
15 18 16 12 11 14 18 21 18 13 10 11 10 12 12 7 5 4 3 3 3 2 4 6 10 13 11 4 4 7 8 9 11 15 19 23 25 28 33 36 37 38 39 40 43 46 49 53 56 60 62 63 63 63 63 62 61 59 56 54 53 54 53 53 53 52 51 49 48 48 50 52 53 51 48 46 46 45 44 44 45 46 47 48 47 48
14 11 11 12 14 19 22 17 12 10 10 12 12 12 9 5 5 6 6 6 4 3 4 5 5 4 5 5 1 5 8 12 17 20 23 25 28 32 37 40 41 41 42 45 49 53 57 60 63 64 64 62 61 60 58 57 57 56 56 56 55 55 54 53 52 50 48 46 45 45 46 48 51 53 51 49 47 47 45 45 45 45 46 47 47 47
13 6 11 18 20 22 20 16 14 14 14 14 13 11 8 5 6 8 10 12 8 5 3 3 3 3 7 9 10 9 13 20 24 25 26 28 32 36 40 42 43 44 47 52 56 61 64 65 65 63 59 55 54 54 53 53 54 56 58 59 58 56 54 53 52 50 47 45 45 45 45 46 48 50 52 51 49 47 46 46 45 45 46 46 47 47
12 9 15 22 22 21 19 17 19 19 17 14 11 8 7 7 8 8 7 7 6 5 5 4 5 6 10 12 12 11 17 24 26 27 29 33 36 40 42 43 46 49 53 59 64 67 68 66 62 55 49 47 48 50 52 53 56 58 59 58 57 55 54 53 53 52 51 50 49 49 48 48 48 49 50 51 50 48 47 46 45 44 43 44 45 47
15 15 17 20 20 19 19 19 20 18 13 9 7 8 9 9 9 7 5 7 9 10 13 12 8 7 9 9 7 10 16 22 27 29 33 37 39 42 45 48 51 54 59 65 68 68 65 61 54 48 46 47 50 52 54 55 57 57 56 55 54 53 54 54 55 55 56 56 55 53 52 51 50 50 50 50 50 50 48 46 45 43 42 41 42 44
15 11 13 19 19 18 17 14 12 9 7 9 12 14 13 11 12 13 13 15 16 14 14 11 6 4 3 4 10 18 24 28 32 36 39 41 42 44 48 52 55 59 64 68 66 62 58 54 50 49 51 53 53 54 54 55 55 55 54 51 47 47 49 51 54 56 58 60 59 57 55 54 53 52 51 50 49 49 49 48 45 43 42 41 42 43
13 8 11 16 13 11 9 4 3 7 13 17 15 12 13 15 17 17 14 13 11 9 9 7 6 7 7 11 21 30 34 36 40 42 42 41 43 47 52 56 60 65 68 65 60 56 54 52 53 55 56 55 54 54 54 54 54 52 50 46 42 42 45 47 50 52 55 58 61 61 59 57 56 53 48 47 48 50 50 48 44 41 41 44 45 45
14 12 12 9 5 5 6 4 8 16 22 20 15 13 17 18 18 16 13 8 7 8 11 11 13 18 20 23 31 37 39 42 44 44 42 41 45 51 56 60 65 68 66 60 56 55 54 55 57 58 58 56 56 55 54 54 53 51 50 49 48 48 50 51 53 54 55 57 60 62 62 60 58 53 46 45 49 50 49 47 43 42 43 46 47 48
14 15 14 11 10 11 13 15 17 20 22 20 16 18 19 18 18 18 13 8 9 14 16 13 15 24 28 30 34 37 38 40 40 40 41 45 50 55 60 66 69 67 61 56 53 53 55 58 60 59 59 58 57 55 54 53 53 54 55 55 55 55 56 56 57 57 57 58 60 63 64 61 58 54 48 45 47 47 47 48 48 48 49 48 48 50
16 18 16 14 14 15 17 19 17 15 16 16 16 18 18 17 18 16 11 8 11 14 14 12 17 27 32 32 31 33 34 35 36 40 45 50 56 61 67 69 67 62 57 52 51 53 58 62 62 60 59 59 58 57 56 56 56 57 58 57 57 58 59 58 57 56 56 58 59 61 62 59 55 52 50 47 46 45 47 51 53 55 54 52 48 48
16 17 16 16 17 17 18 16 12 10 12 13 15 16 14 12 13 12 10 10 12 11 14 20 26 29 30 29 28 28 30 34 40 45 49 54 61 66 68 65 59 56 54 53 55 59 62 63 62 61 60 60 60 60 59 59 59 59 59 59 57 57 58 57 56 55 55 56 57 58 59 57 54 51 50 50 48 47 49 53 56 58 57 55 52 48
14 14 15 17 19 20 19 14 11 11 12 12 13 12 9 6 6 7 9 10 13 15 18 26 30 27 23 24 26 28 34 39 45 48 52 59 64 64 60 56 52 52 54 56 59 63 63 62 62 61 61 61 61 61 61 61 60 60 61 61 60 59 59 59 59 58 57 57 57 57 57 57 55 52 51 50 50 50 51 53 56 58 58 57 55 52
12 13 14 16 20 21 16 14 15 14 11 10 10 9 7 6 5 7 12 15 19 21 24 27 28 25 24 28 32 37 41 44 47 52 58 63 61 55 51 50 50 53 56 59 61 62 62 62 62 61 61 61 62 62 62 62 62 62 62 62 62 61 60 60 61 61 61 60 59 58 57 57 57 55 53 51 50 49 50 51 53 55 57 56 55 55
12 13 14 16 18 18 14 14 16 15 12 10 9 8 6 6 9 11 14 19 21 24 28 28 26 27 33 39 43 45 44 46 52 58 61 59 54 50 49 50 52 55 59 61 62 62 63 63 63 63 63 63 64 64 64 64 63 63 62 62 61 61 60 60 59 60 60 60 59 58 57 58 58 57 56 54 51 49 48 49 49 50 52 53 53 53
13 14 15 15 15 16 15 14 14 14 10 5 5 7 7 9 13 15 17 21 23 26 29 30 28 32 38 42 45 45 47 52 59 59 57 53 49 49 51 53 55 58 59 61 61 62 63 64 64 65 65 65 64 64 63 62 62 62 61 61 61 61 62 61 61 61 61 61 61 60 59 59 59 58 57 56 54 51 49 48 48 47 48 49 49 50
13 15 17 14 13 15 17 16 14 9 4 1 3 7 9 12 15 18 21 25 28 31 32 32 34 37 39 39 42 48 54 58 58 55 52 50 46 48 53 56 58 60 61 62 62 62 63 64 64 64 64 63 62 63 63 62 62 63 63 63 63 63 63 63 63 62 62 62 62 60 58 58 59 58 57 56 54 52 49 48 47 46 45 46 46 47
15 17 17 13 12 14 16 16 11 3 2 3 7 10 12 15 16 18 22 28 33 37 38 38 37 35 34 38 45 53 56 55 53 51 49 46 45 50 56 59 59 61 62 63 63 63 62 63 63 63 63 63 63 63 64 65 65 66 66 65 64 63 62 61 61 61 61 61 61 60 58 57 57 57 56 55 53 51 48 46 45 44 44 44 44 44
17 16 15 13 11 11 13 12 7 3 4 8 13 16 17 17 18 22 30 34 36 39 40 36 32 31 37 45 51 52 52 51 52 51 47 46 50 54 57 59 60 60 61 61 61 62 62 62 63 64 64 64 64 64 65 65 65 66 66 65 64 63 63 62 62 63 63 63 63 62 60 59 58 57 56 55 53 50 47 44 43 42 42 42 41 41
17 14 13 12 8 7 11 12 9 8 7 8 11 13 15 18 20 25 35 40 39 37 34 29 31 38 46 51 52 51 52 53 53 50 49 51 55 55 56 57 59 59 60 60 60 61 62 63 64 65 65 65 65 65 65 65 66 66 66 66 66 66 66 65 65 65 65 65 65 64 63 61 60 58 57 55 52 48 45 43 42 41 40 40 40 41
16 14 11 8 6 8 11 11 8 5 5 6 10 12 15 19 19 27 40 43 33 26 27 32 40 48 51 52 53 53 54 55 54 52 53 55 56 56 57 58 58 59 61 61 63 64 65 65 66 66 65 66 65 65 65 66 67 68 68 68 68 68 68 67 66 65 64 65 65 65 64 62 60 59 57 56 52 49 47 45 44 43 42 41 42 42
17 15 11 7 6 9 11 9 6 3 3 9 15 18 19 22 28 36 38 32 25 25 33 42 47 50 52 53 54 54 55 56 57 56 56 57 58 58 59 60 61 61 62 63 64 65 65 66 66 65 65 65 66 66 67 68 68 69 69 68 68 68 68 67 67 66 65 65 65 65 65 63 62 60 58 57 54 51 49 48 46 45 44 44 44 43
18 15 11 8 8 11 10 8 8 7 8 14 20 23 26 33 40 35 22 23 35 42 44 47 47 48 51 52 52 53 54 55 57 58 58 58 59 59 59 61 62 63 63 64 64 64 65 65 65 66 66 67 67 68 68 69 69 69 69 69 68 68 68 68 68 67 67 66 66 66 65 64 63 62 60 59 57 54 52 51 49 47 47 47 46 44
17 14 10 10 13 14 10 9 11 12 15 19 21 28 38 44 39 24 16 30 46 49 46 47 47 47 49 49 50 52 53 53 54 56 57 57 59 60 60 61 61 61 62 62 63 64 65 65 66 67 67 67 68 69 69 70 70 69 69 70 70 70 71 70 70 70 69 68 67 66 65 64 63 62 60 59 57 56 53 51 48 47 47 47 47 46
16 13 8 12 17 15 10 13 14 11 15 22 27 34 44 43 32 25 30 40 44 44 46 47 46 47 49 49 50 51 52 53 53 54 56 58 59 60 61 61 62 62 62 62 63 65 66 67 68 68 68 68 68 69 69 70 70 70 70 71 72 73 73 74 73 73 71 70 68 66 64 62 60 58 56 55 54 54 52 48 44 43 45 45 45 46
14 11 8 12 18 15 12 12 9 9 20 31 36 40 43 38 29 31 39 42 41 44 45 45 46 48 50 50 51 51 52 53 54 55 57 58 59 60 60 61 62 63 63 64 65 66 67 68 68 68 68 68 68 68 69 70 71 71 72 73 74 75 76 75 74 73 70 68 65 63 61 59 56 53 52 51 51 51 50 47 43 41 43 44 44 44
12 10 9 12 14 13 14 13 10 17 27 33 35 39 39 34 30 34 39 42 43 44 44 46 48 48 48 50 52 52 52 54 55 57 59 60 60 60 60 61 62 62 64 65 65 66 67 68 68 68 68 68 68 68 69 70 71 73 73 75 76 77 76 74 71 69 66 62 60 58 57 55 53 51 49 48 48 48 48 46 43 41 41 41 42 43
10 10 12 14 12 14 19 19 18 22 28 30 31 34 35 32 33 37 40 42 43 43 45 48 48 47 48 50 51 52 54 55 57 58 59 61 61 61 61 61 62 62 64 65 65 66 66 67 68 68 68 67 67 68 68 70 72 74 76 77 78 77 75 73 69 66 62 58 56 54 53 52 50 48 47 45 45 45 45 44 42 39 37 38 38 40
10 10 13 16 18 20 20 20 23 26 29 30 30 32 34 36 37 40 41 41 42 43 45 48 49 49 49 50 52 54 55 56 58 59 60 60 61 60 61 61 62 62 64 65 65 65 66 67 67 67 67 67 67 67 69 70 72 75 77 78 78 76 74 71 67 64 60 57 54 52 50 49 48 46 44 43 41 41 41 40 39 37 34 34 34 35
12 13 17 21 25 27 24 24 30 33 31 30 32 34 37 38 38 40 41 42 44 45 46 48 50 51 50 51 53 54 55 56 58 59 60 60 60 60 61 61 62 63 63 64 64 65 65 66 66 66 67 67 67 68 69 70 71 73 75 76 76 74 71 67 63 60 57 54 52 49 47 46 44 43 41 40 38 37 35 34 33 32 30 29 29 31
15 19 24 28 31 32 30 30 35 35 32 32 35 37 39 40 40 41 42 44 46 47 47 48 50 51 52 52 52 54 56 57 57 59 60 60 59 60 61 61 62 63 63 63 64 64 64 65 65 66 66 66 67 67 68 68 70 70 71 72 72 71 68 64 60 57 54 51 49 47 45 43 41 39 38 36 33 31 30 28 26 24 24 23 23 24
19 23 29 34 35 34 33 33 37 39 37 36 37 38 39 40 42 42 43 45 47 48 48 49 49 50 51 52 52 54 56 56 56 58 59 59 59 60 60 60 61 62 63 63 63 62 63 63 64 64 64 65 66 66 66 67 67 67 67 68 68 67 64 60 56 53 50 48 47 45 43 41 39 37 35 33 30 27 24 22 21 20 19 17 16 17
23 29 33 36 37 36 35 36 38 40 40 40 39 39 40 41 42 44 45 46 47 48 49 49 49 49 50 51 52 54 55 56 56 57 58 58 59 59 59 60 61 62 62 62 62 62 62 61 62 62 63 63 64 65 65 65 64 63 63 64 65 64 62 59 56 52 49 48 46 44 43 40 38 36 34 32 30 27 22 18 17 18 18 16 15 15
29 33 34 35 36 36 35 35 36 37 38 39 38 39 40 42 44 45 46 47 48 48 48 49 50 51 51 51 52 53 54 55 56 57 58 59 58 58 59 60 61 62 62 62 61 61 61 61 61 61 62 63 63 63 63 62 62 61 60 61 61 62 60 59 57 53 50 48 45 43 42 40 37 35 33 31 29 28 24 19 15 14 16 17 17 16
Wind_Direction
311 303 302 300 289 275 278 287 289 288 289 287 283 284 285 288 294 298 295 293 295 295 297 301 303 306 310 315 318 305 283 279 281 283 287 293 295 294 295 297 298 297 293 291 285 276 265 257 256 255 254 254 255 259 264 270 277 283 288 292 294 295 296 297 297 298 299 300 301 301 301 301 300 300 301 303 304 305 305 305 305 303 302 302 301 301
299 293 294 290 279 269 270 279 285 287 288 286 286 288 289 294 299 298 291 289 293 293 295 302 304 304 311 318 313 288 272 269 273 286 292 290 290 293 297 298 296 292 286 282 273 266 264 258 253 252 255 259 263 269 276 282 287 292 294 296 296 296 296 297 298 299 299 300 300 300 300 300 300 301 303 304 305 305 305 304 303 301 301 300 300 300
292 292 294 289 280 276 279 285 288 287 287 287 290 292 294 299 300 292 288 290 295 296 300 306 304 305 316 319 296 267 262 268 278 290 290 286 290 294 298 299 293 288 284 278 273 273 269 260 258 260 264 270 275 280 284 290 295 299 302 302 301 299 298 298 299 299 299 299 298 298 298 299 300 302 303 304 305 305 304 303 301 300 300 299 298 298
281 283 284 281 280 283 287 290 291 291 290 292 295 295 296 296 289 285 291 296 299 302 306 309 304 310 322 308 265 254 263 273 282 289 286 282 289 295 298 299 294 287 283 279 278 278 272 267 269 273 277 281 285 289 293 299 304 307 307 305 303 300 297 296 297 297 297 298 298 298 298 300 301 303 304 304 304 304 302 300 299 298 298 298 297 298
277 276 278 281 284 288 292 295 298 295 296 299 299 296 295 293 288 288 294 299 303 307 310 312 309 314 330 289 259 258 260 270 278 281 279 277 286 297 299 294 286 279 276 275 276 277 275 277 282 285 288 291 295 300 304 307 309 309 307 305 303 300 298 297 297 298 298 298 298 298 300 301 302 302 302 302 302 301 300 299 298 297 297 296 296 296
285 285 287 288 289 293 296 299 299 297 300 300 294 291 291 291 292 293 299 303 307 313 313 316 321 315 316 288 268 263 263 265 271 272 271 279 291 296 293 282 273 269 269 271 273 276 281 286 291 294 297 301 305 308 309 309 309 308 306 305 303 302 302 301 301 300 300 299 299 300 301 301 301 301 300 299 298 297 297 297 297 297 296 296 295 294
290 293 294 295 296 298 298 299 298 299 301 298 294 295 293 294 296 298 303 305 305 306 296 296 297 276 291 297 260 254 262 258 260 266 271 285 291 289 285 276 271 268 268 270 273 278 286 293 298 300 302 305 307 307 307 306 306 305 304 303 302 302 301 301 300 300 300 300 300 301 300 300 300 299 299 298 297 296 296 295 295 295 295 294 293 292
295 297 297 298 298 299 299 301 302 304 302 299 300 302 300 301 302 304 305 300 296 296 293 291 273 265 292 303 244 237 244 245 255 260 270 286 290 289 284 277 273 272 270 272 275 281 289 295 299 301 302 304 305 306 307 306 305 303 301 301 301 301 300 300 300 300 300 300 300 300 299 299 299 298 298 297 296 295 294 294 293 293 292 291 291 290
299 299 299 300 301 301 303 306 307 307 303 302 305 307 308 309 308 306 299 294 297 298 296 291 237 239 284 283 217 220 223 235 254 264 279 289 292 288 283 278 276 275 273 275 279 284 290 294 298 301 304 306 307 308 308 306 304 302 301 301 301 301 301 301 301 301 301 301 301 300 299 299 298 298 297 296 295 294 293 292 292 291 291 290 290 290
301 301 304 306 306 304 306 308 307 307 306 308 312 312 313 314 309 304 294 294 299 281 282 276 221 209 285 260 201 202 214 230 251 270 282 288 292 287 280 279 278 278 279 284 290 296 300 302 305 307 308 309 309 307 305 302 302 302 303 303 303 303 302 302 302 302 302 302 301 301 300 299 299 298 297 296 295 293 292 291 291 290 290 290 290 290
303 306 310 311 309 306 308 310 309 310 311 313 317 317 319 321 311 297 293 305 307 254 266 248 212 203 297 259 195 202 221 244 265 276 282 287 291 285 281 280 280 282 287 296 304 307 310 311 311 311 310 310 307 304 302 300 301 302 303 303 303 304 304 303 302 302 302 301 301 301 300 300 300 299 298 296 294 293 292 291 291 291 290 290 291 291
308 311 313 312 311 311 313 316 317 316 315 316 322 329 332 329 306 282 284 300 240 263 174 167 191 206 224 256 259 246 249 266 278 283 286 289 289 284 282 282 283 291 301 308 312 313 314 314 313 312 310 308 305 303 303 303 304 303 303 303 303 303 304 304 303 303 302 302 302 302 301 301 300 299 297 296 295 294 293 293 293 292 292 292 292 292
311 313 314 313 314 316 320 326 326 320 317 320 327 333 336 323 297 263 218 218 231 177 142 165 223 252 259 274 281 273 269 273 278 280 282 284 284 284 285 285 291 303 311 315 317 317 317 316 316 314 312 311 310 309 309 308 307 306 305 305 304 304 304 304 305 305 304 304 304 303 302 301 300 299 297 296 296 296 295 294 293 293 293 293 293 292
316 318 317 316 317 316 321 326 326 321 318 320 321 324 328 326 313 288 261 282 281 129 275 287 288 279 281 281 274 273 275 275 276 273 272 276 280 287 293 298 305 312 317 321 322 321 320 319 319 318 316 314 312 312 311 310 310 309 308 307 307 307 307 306 306 305 305 304 304 303 302 301 300 299 298 297 297 296 295 293 292 292 292 291 290 289
311 313 312 318 319 313 316 321 322 319 318 316 314 317 309 286 261 272 319 328 295 300 300 290 283 286 287 273 267 274 275 272 272 266 268 277 285 297 307 311 314 317 321 324 324 323 321 320 319 318 316 314 313 313 312 311 311 310 310 310 310 309 309 309 308 307 306 304 303 301 300 300 300 299 298 298 297 295 293 292 291 290 289 288 287 287
303 292 297 310 313 310 314 317 320 321 322 314 309 319 305 269 248 270 295 296 289 295 291 260 263 284 282 270 270 274 269 266 264 265 277 293 306 318 322 321 321 321 323 324 323 321 318 316 316 315 315 315 314 314 313 313 314 314 314 313 313 313 312 311 311 310 308 307 305 302 300 298 299 300 298 297 296 294 292 290 289 288 286 285 286 286
300 285 295 306 309 312 315 319 320 319 314 302 298 298 279 266 273 279 291 299 291 287 271 246 259 283 280 268 264 263 260 258 258 270 292 310 321 327 328 326 325 323 322 322 321 318 315 313 314 315 316 316 315 316 316 316 316 316 316 315 315 314 314 313 312 311 310 309 308 306 304 301 300 299 298 296 295 293 292 290 288 287 286 285 285 286
303 301 308 314 315 317 320 319 318 314 307 303 298 295 293 286 279 275 292 317 299 266 270 272 285 298 296 278 238 226 240 255 272 292 306 314 320 325 327 327 326 323 321 318 316 315 315 315 316 317 319 319 319 319 319 318 317 316 315 315 315 314 313 313 312 312 311 310 309 309 308 307 305 303 300 298 296 294 293 291 290 288 287 287 286 286
312 309 313 320 316 316 320 319 318 316 311 311 308 308 309 297 277 276 286 310 301 274 279 288 295 301 305 299 172 192 232 267 297 309 313 315 319 323 326 326 324 321 318 315 316 317 318 319 320 322 323 322 322 320 319 317 315 314 314 314 314 314 314 313 312 311 310 309 308 308 308 309 308 306 303 300 298 297 296 295 294 293 292 291 291 290
318 308 301 309 311 314 321 322 319 315 313 317 321 325 328 310 283 278 269 278 287 274 281 302 316 339 12 12 305 238 270 302 314 316 317 317 318 320 321 320 318 316 316 318 319 321 322 323 324 324 324 322 320 318 316 314 313 314 315 314 315 315 314 312 311 310 310 308 306 305 305 306 306 305 303 300 299 299 299 298 297 297 297 296 296 295
321 297 280 299 309 314 318 315 307 307 309 309 312 319 326 317 299 289 281 277 266 260 296 313 297 345 4 335 300 298 324 330 325 320 316 314 315 316 315 315 315 316 319 322 324 325 325 325 325 324 323 321 317 315 313 313 314 314 315 315 315 314 313 312 310 309 308 306 303 302 302 303 304 304 303 301 299 299 299 299 299 299 299 299 299 298
321 299 284 295 307 313 312 304 298 301 306 307 302 294 287 295 307 305 292 281 267 274 312 312 290 307 311 294 288 321 343 337 328 319 315 314 314 314 314 315 318 321 324 326 327 327 326 325 324 323 321 318 314 313 312 312 312 313 313 313 313 312 312 311 311 310 309 307 305 305 304 303 304 305 304 302 301 299 298 299 299 299 298 298 298 298
315 307 296 300 313 319 314 303 296 296 306 323 330 317 303 300 308 303 285 299 302 294 294 294 287 286 278 267 292 333 333 326 321 317 315 314 312 312 314 317 320 323 326 327 327 326 324 322 322 321 319 317 314 313 311 311 311 311 312 312 313 315 316 315 314 313 311 310 309 309 308 307 307 307 306 304 302 300 299 299 299 299 299 298 297 296
318 315 307 311 318 318 312 304 296 293 312 338 336 324 310 301 304 299 289 293 296 287 285 284 266 267 278 277 308 317 314 313 315 315 314 312 311 314 318 321 323 325 327 327 326 323 321 320 320 320 319 317 315 313 311 311 311 311 312 315 318 321 319 316 315 313 312 311 311 311 311 311 311 309 306 304 303 301 299 298 299 301 303 301 299 297
317 311 308 314 321 324 323 340 0 323 318 326 329 316 299 298 302 304 302 298 290 280 278 267 252 273 283 283 297 306 307 306 309 311 310 310 312 317 321 323 326 326 327 327 324 320 319 320 321 321 319 318 316 316 315 316 316 316 316 317 318 315 311 309 309 308 307 307 307 309 311 313 314 312 309 306 302 299 298 297 298 301 305 304 302 300
312 307 306 305 302 313 312 311 322 316 312 317 319 304 300 304 306 311 317 301 280 293 294 282 283 287 284 287 296 302 302 303 306 307 307 309 313 317 321 325 326 326 325 323 321 320 320 321 321 321 320 321 321 320 320 320 319 318 316 314 313 310 307 305 304 303 302 302 303 306 309 311 312 311 307 301 297 298 299 298 298 300 303 304 303 301
314 311 309 296 280 282 290 298 308 309 306 310 311 305 306 312 314 320 323 301 294 308 302 289 297 303 306 312 311 307 305 304 305 307 309 311 315 320 324 325 324 322 321 321 320 320 320 320 322 322 323 323 323 322 321 319 317 315 314 313 313 311 309 307 304 303 302 302 302 303 305 307 308 306 301 297 296 298 298 297 298 299 299 302 302 299
316 313 314 310 302 300 305 311 314 309 307 310 308 305 310 317 322 326 330 328 328 320 307 305 314 315 318 320 312 305 306 306 307 310 313 315 320 323 323 321 319 319 320 322 322 320 319 321 323 324 324 324 323 322 321 320 318 316 315 315 315 312 311 310 309 307 306 304 302 302 303 305 306 304 301 300 299 298 295 295 298 298 298 300 299 295
319 314 318 320 316 319 324 325 325 323 321 313 300 301 310 323 336 341 339 343 343 323 304 309 316 320 319 311 301 301 305 305 307 311 314 318 321 321 319 318 320 321 323 323 321 320 320 322 323 324 324 324 323 322 321 320 318 317 316 316 315 314 313 312 312 310 307 305 304 304 304 305 305 303 301 299 297 294 292 293 296 297 299 300 299 296
322 315 322 325 321 328 337 338 338 334 325 308 290 294 307 316 336 338 325 324 323 313 307 312 318 322 313 295 290 294 298 300 305 310 315 318 319 320 320 322 323 321 321 320 318 319 322 323 324 324 324 323 322 321 320 319 319 318 318 318 317 316 315 314 312 311 309 307 306 306 305 304 303 302 299 297 295 293 291 291 292 294 297 299 299 298
325 319 326 328 326 335 342 338 338 333 315 295 286 293 302 292 289 308 316 322 322 319 320 321 319 313 300 292 293 296 299 303 308 312 316 319 322 325 326 324 321 319 319 318 319 321 322 323 324 324 322 321 321 320 320 320 320 319 318 317 317 315 314 313 312 311 310 309 308 307 306 304 303 302 301 298 296 295 293 291 290 291 292 295 296 296
331 327 332 331 329 334 333 328 332 322 296 282 287 295 313 320 319 323 330 336 334 327 324 322 316 307 304 304 304 303 305 308 312 317 322 326 328 328 325 322 321 320 320 320 322 323 323 323 323 323 322 322 322 321 321 321 320 318 317 316 315 313 312 311 310 309 308 308 308 307 306 305 305 304 303 301 299 297 295 293 291 290 290 292 293 293
337 333 337 335 326 326 331 334 330 311 293 292 301 303 316 323 320 321 329 335 332 325 322 319 313 307 303 303 305 307 310 314 317 323 330 332 329 325 325 324 322 321 321 322 324 324 324 324 324 323 322 322 321 321 320 319 318 317 316 315 315 315 314 313 312 312 311 310 309 308 307 306 305 303 303 302 301 300 298 296 294 292 290 290 290 289
342 338 339 335 319 321 337 345 333 308 274 213 276 287 298 309 316 324 335 338 329 322 321 316 307 301 300 303 310 313 314 317 321 326 332 332 327 324 324 324 323 323 323 324 325 325 324 323 322 321 321 320 321 320 320 319 319 318 318 318 318 317 316 314 313 312 310 308 307 306 306 304 302 302 301 301 300 300 299 298 296 294 291 289 288 287
342 338 339 337 320 319 339 350 346 343 153 222 266 278 287 295 301 309 321 328 324 319 319 313 305 300 301 306 312 314 317 320 324 329 333 331 325 322 323 324 324 325 325 325 325 324 323 322 321 321 321 321 322 322 322 322 321 320 319 319 317 316 313 312 311 310 308 308 306 306 305 303 301 301 300 300 300 300 300 298 296 293 290 288 286 284
343 343 343 343 330 322 338 352 345 286 223 240 261 273 283 290 299 311 319 324 322 318 315 309 301 299 304 310 315 320 323 325 328 333 335 330 325 325 324 324 325 325 325 325 324 322 322 323 323 323 324 324 324 324 323 322 320 319 317 317 315 314 313 313 312 312 312 311 309 308 307 305 304 303 303 302 302 302 301 298 294 291 289 287 285 283
347 348 344 347 352 339 336 336 312 269 244 254 273 286 301 312 324 332 329 322 317 312 308 301 299 305 312 319 324 328 329 328 330 334 333 328 326 325 324 324 325 325 324 324 323 324 325 325 325 325 326 326 325 324 322 321 319 318 317 318 318 318 317 317 316 315 314 313 311 310 309 308 307 306 305 304 303 303 300 297 294 291 289 288 286 283
352 355 353 356 358 345 339 334 314 267 248 285 293 296 307 313 322 328 322 315 310 305 302 303 309 317 324 327 329 330 331 329 330 332 331 328 327 326 325 326 326 325 325 326 326 326 326 326 326 326 326 325 324 323 322 321 321 321 321 321 321 320 319 318 316 315 314 313 311 310 309 308 307 306 304 303 303 302 299 297 294 292 289 287 285 282
355 1 5 9 356 344 342 332 313 287 268 287 292 298 306 310 316 321 316 308 306 309 314 319 323 326 328 329 329 330 330 328 328 330 331 328 328 328 327 327 327 327 327 328 327 326 326 325 325 325 325 324 324 324 324 324 324 323 323 322 321 320 318 317 316 315 314 312 311 309 308 307 305 304 303 301 300 299 296 294 292 290 287 285 282 280
350 358 6 15 3 348 341 322 305 296 282 286 297 307 311 313 319 322 313 305 317 324 327 328 327 325 326 326 327 328 328 326 326 328 329 328 327 328 328 328 329 328 328 327 326 325 325 325 325 326 326 326 326 326 326 325 324 323 322 322 321 320 319 318 316 315 313 312 310 308 307 305 304 302 301 299 298 296 293 291 291 289 285 282 280 278
348 3 7 357 352 356 354 326 308 290 281 292 308 314 314 318 324 328 312 312 322 329 329 326 324 324 326 326 326 327 326 325 324 326 327 327 327 328 328 329 329 328 327 327 326 325 326 326 327 327 327 328 328 327 326 324 324 323 323 323 322 321 320 318 317 316 314 312 310 308 306 304 302 301 299 297 296 294 292 291 290 286 282 280 279 276
350 4 5 344 346 356 352 325 314 290 287 307 318 317 318 325 333 326 316 316 320 324 325 324 324 325 326 327 326 326 326 326 326 326 327 327 327 329 329 329 328 328 327 326 326 327 328 328 328 328 328 329 328 327 326 325 325 325 325 324 324 323 321 320 319 317 315 312 311 308 307 305 303 301 299 297 295 293 291 289 286 281 279 277 276 274
345 354 1 351 349 349 344 340 335 301 302 316 322 320 323 331 330 318 317 319 320 322 325 325 326 326 327 327 327 326 326 327 328 328 328 328 329 330 330 329 329 329 328 327 328 329 329 329 329 328 328 329 328 328 328 327 327 327 327 326 326 325 323 322 320 317 315 314 312 310 308 307 305 303 300 297 294 292 289 287 284 279 275 274 273 272
345 347 349 354 354 344 334 332 316 299 306 317 322 320 323 327 321 314 318 322 324 326 327 326 327 329 328 326 327 327 328 329 329 329 329 329 330 331 331 330 329 329 328 329 330 330 330 329 329 329 329 329 329 329 330 330 329 329 328 328 327 326 324 323 320 318 317 315 314 312 311 309 307 304 301 298 295 291 288 286 283 279 275 273 273 273
349 349 343 343 343 336 326 314 301 302 312 319 319 318 322 324 321 320 323 325 327 328 326 326 328 328 328 328 328 330 330 331 331 331 330 330 331 331 331 330 330 330 330 330 331 331 331 330 330 329 330 330 331 332 332 332 331 331 330 330 329 328 326 324 322 320 319 318 316 315 313 310 308 306 303 300 296 293 290 287 284 281 276 274 272 272
346 347 342 333 328 331 327 311 304 313 321 323 322 323 327 327 325 325 327 327 328 329 327 327 328 329 330 331 331 332 332 332 332 331 331 331 331 331 330 331 331 331 331 331 331 332 331 331 330 331 331 332 333 333 334 334 333 333 332 332 331 330 328 326 324 322 321 320 319 317 316 314 311 309 307 304 301 298 294 292 289 286 281 276 273 272
338 333 333 330 329 332 330 318 318 325 329 330 329 329 329 328 328 329 329 329 330 331 329 328 329 331 333 333 333 333 333 332 332 331 331 331 331 331 332 332 332 332 332 332 333 333 332 332 332 332 333 334 335 335 335 335 334 334 334 334 334 332 330 328 325 323 322 322 322 321 320 318 317 315 313 310 307 303 299 296 294 290 285 279 274 271
334 329 331 332 330 332 331 326 326 330 333 335 334 332 331 330 329 330 331 331 331 331 330 331 332 333 333 334 334 333 332 332 333 332 331 332 332 333 334 333 333 333 332 333 334 334 333 333 334 334 335 335 336 336 336 336 336 336 337 337 336 335 332 330 327 326 326 326 325 325 325 324 323 322 319 317 314 310 305 302 297 290 284 281 277 275
331 330 331 330 330 333 334 332 331 333 335 337 336 333 332 330 330 332 334 333 331 331 332 333 334 333 333 333 334 333 333 333 333 331 331 333 334 335 335 334 334 333 333 334 335 336 335 335 335 336 336 336 337 337 336 336 337 339 339 340 340 338 336 334 332 331 330 330 329 329 329 329 328 327 325 324 322 318 314 309 302 293 285 279 274 274
330 332 332 332 333 336 337 336 336 335 334 334 334 332 331 331 331 334 334 331 331 332 333 333 333 333 333 333 334 333 333 333 333 332 333 334 336 336 336 335 334 334 334 335 336 337 337 337 337 337 337 337 337 337 337 338 339 340 341 343 343 342 341 340 339 338 337 336 335 335 334 333 332 331 330 329 327 324 321 317 307 299 291 280 269 267
333 334 335 334 335 336 336 335 335 333 330 331 332 332 332 332 333 333 332 331 332 333 333 332 332 333 333 334 334 334 334 334 334 334 335 336 337 337 337 336 335 335 335 336 338 338 338 338 338 338 338 338 338 338 338 339 340 341 343 344 345 346 347 346 345 345 345 343 343 342 339 337 336 336 335 334 332 328 325 322 313 302 293 285 280 277